WUK411 LRSM-EGGW

Flight info

Callsign WUK411
Flight time 2h 29m
Altitude 38000
Route KARIL DCT ABULI DCT ROMIS DCT LALUK DCT KUMER DCT TOLTA DCT HMM DCT NOGRO M40 RINIS
Aircraft A21N/M-SDE1E2E3FGIJ1J4RWXY/LB1

Departure

Time 2026-04-16 06:14
Airport Satu Mare International Airport (LRSM)

Arrival

Time 2026-04-16 08:44
Airport London Luton Airport (EGGW)
Time Latitude Longitude Altitude Speed Heading
2026-04-16 05:42 47.70649 22.88337 414 ft 0 kts 13°
2026-04-16 06:10 47.70651 22.88344 414 ft 1 kts 67°
2026-04-16 06:10 47.70644 22.88358 409 ft 4 kts 139°
2026-04-16 06:11 47.70611 22.88407 413 ft 9 kts 122°
2026-04-16 06:11 47.70581 22.88493 409 ft 9 kts 110°
2026-04-16 06:11 47.70574 22.88586 414 ft 9 kts 86°
2026-04-16 06:11 47.70603 22.88656 411 ft 8 kts 25°
2026-04-16 06:12 47.70662 22.88671 412 ft 9 kts
2026-04-16 06:12 47.70750 22.88692 412 ft 17 kts
2026-04-16 06:12 47.70873 22.88726 412 ft 20 kts 11°
2026-04-16 06:12 47.71010 22.88765 412 ft 20 kts 11°
2026-04-16 06:13 47.71148 22.88805 412 ft 20 kts 11°
2026-04-16 06:13 47.71283 22.88859 409 ft 20 kts 29°
2026-04-16 06:13 47.71378 22.88954 413 ft 15 kts 24°
2026-04-16 06:13 47.71401 22.88931 413 ft 4 kts 234°
2026-04-16 06:14 47.71318 22.88897 408 ft 40 kts 191°
2026-04-16 06:14 47.70827 22.88730 412 ft 105 kts 193°
2026-04-16 06:14 47.69532 22.88311 599 ft 161 kts 191°
2026-04-16 06:14 47.68464 22.87977 1364 ft 157 kts 194°
2026-04-16 06:15 47.67738 22.87709 1797 ft 161 kts 195°
2026-04-16 06:15 47.66610 22.87277 2252 ft 178 kts 195°
2026-04-16 06:15 47.65341 22.86802 2510 ft 202 kts 195°
2026-04-16 06:15 47.63935 22.86100 2715 ft 229 kts 211°
2026-04-16 06:16 47.62796 22.84305 3030 ft 252 kts 250°
2026-04-16 06:16 47.62649 22.81729 3830 ft 255 kts 286°
2026-04-16 06:16 47.63550 22.79532 4758 ft 258 kts 320°
2026-04-16 06:16 47.65186 22.78469 5746 ft 262 kts 352°
2026-04-16 06:17 47.67017 22.78333 6767 ft 266 kts 358°
2026-04-16 06:17 47.68888 22.78277 7677 ft 270 kts 356°
2026-04-16 06:17 47.70782 22.78123 8601 ft 274 kts 353°
2026-04-16 06:17 47.72646 22.77477 9528 ft 276 kts 334°
2026-04-16 06:18 47.74175 22.75836 10380 ft 279 kts 310°
2026-04-16 06:18 47.75167 22.73270 10820 ft 299 kts 289°
2026-04-16 06:18 47.75711 22.70160 11248 ft 319 kts 282°
2026-04-16 06:18 47.76163 22.66882 11976 ft 327 kts 282°
2026-04-16 06:19 47.76619 22.63547 12871 ft 330 kts 282°
2026-04-16 06:19 47.77090 22.60186 13807 ft 333 kts 283°
2026-04-16 06:19 47.77573 22.56802 14624 ft 336 kts 283°
2026-04-16 06:19 47.78067 22.53380 15384 ft 340 kts 283°
2026-04-16 06:20 47.78563 22.49962 16132 ft 344 kts 283°
2026-04-16 06:20 47.79094 22.46463 16888 ft 348 kts 285°
2026-04-16 06:20 47.79887 22.43050 17645 ft 351 kts 293°
2026-04-16 06:20 47.80926 22.39728 18379 ft 355 kts 297°
2026-04-16 06:21 47.82084 22.36447 19011 ft 358 kts 298°
2026-04-16 06:21 47.83286 22.33220 19626 ft 362 kts 299°
2026-04-16 06:21 47.84526 22.29942 20260 ft 364 kts 299°
2026-04-16 06:21 47.85772 22.26635 20891 ft 367 kts 299°
2026-04-16 06:22 47.87016 22.23295 21522 ft 370 kts 298°
2026-04-16 06:22 47.88256 22.19927 22145 ft 373 kts 298°
2026-04-16 06:22 47.89499 22.16522 22744 ft 375 kts 298°
2026-04-16 06:22 47.90745 22.13087 23338 ft 378 kts 298°
2026-04-16 06:23 47.91982 22.09664 23879 ft 381 kts 298°
2026-04-16 06:23 47.93243 22.06170 24344 ft 384 kts 298°
2026-04-16 06:23 47.94514 22.02643 24767 ft 387 kts 298°
2026-04-16 06:23 47.95794 21.99088 25194 ft 390 kts 298°
2026-04-16 06:24 47.97086 21.95493 25607 ft 393 kts 298°
2026-04-16 06:24 47.98368 21.91926 26026 ft 395 kts 298°
2026-04-16 06:24 47.99672 21.88292 26434 ft 398 kts 298°
2026-04-16 06:24 48.00984 21.84629 26817 ft 401 kts 299°
2026-04-16 06:25 48.02312 21.80914 27199 ft 404 kts 299°
2026-04-16 06:25 48.03639 21.77198 27568 ft 407 kts 299°
2026-04-16 06:25 48.04958 21.73501 27908 ft 409 kts 299°
2026-04-16 06:25 48.06305 21.69719 28259 ft 412 kts 299°
2026-04-16 06:26 48.07646 21.65950 28596 ft 414 kts 299°
2026-04-16 06:26 48.09002 21.62135 28933 ft 417 kts 299°
2026-04-16 06:26 48.10371 21.58276 29258 ft 419 kts 299°
2026-04-16 06:26 48.11746 21.54397 29557 ft 422 kts 299°
2026-04-16 06:27 48.13122 21.50508 29872 ft 424 kts 299°
2026-04-16 06:27 48.14504 21.46594 30267 ft 424 kts 299°
2026-04-16 06:27 48.15881 21.42688 30652 ft 423 kts 300°
2026-04-16 06:27 48.17248 21.38805 31040 ft 421 kts 300°
2026-04-16 06:28 48.18591 21.34984 31515 ft 417 kts 300°
2026-04-16 06:28 48.19938 21.31146 31937 ft 415 kts 300°
2026-04-16 06:28 48.21280 21.27318 32267 ft 414 kts 300°
2026-04-16 06:28 48.22618 21.23494 32585 ft 414 kts 300°
2026-04-16 06:29 48.23957 21.19665 32901 ft 413 kts 300°
2026-04-16 06:29 48.25298 21.15827 33065 ft 416 kts 300°
2026-04-16 06:29 48.27997 21.08087 33250 ft 425 kts 300°
2026-04-16 06:30 48.30761 21.00131 33425 ft 433 kts 300°
2026-04-16 06:30 48.32161 20.96089 33533 ft 436 kts 300°
2026-04-16 06:30 48.33563 20.92035 33771 ft 437 kts 300°
2026-04-16 06:31 48.34963 20.87979 34029 ft 437 kts 300°
2026-04-16 06:31 48.36343 20.83974 34275 ft 436 kts 300°
2026-04-16 06:31 48.37734 20.79929 34508 ft 436 kts 300°
2026-04-16 06:31 48.39128 20.75873 34718 ft 435 kts 300°
2026-04-16 06:32 48.40520 20.71815 34924 ft 435 kts 300°
2026-04-16 06:32 48.41911 20.67757 35108 ft 435 kts 300°
2026-04-16 06:32 48.43299 20.63701 35252 ft 436 kts 299°
2026-04-16 06:32 48.44673 20.59679 35431 ft 436 kts 299°
2026-04-16 06:33 48.46059 20.55614 35616 ft 435 kts 299°
2026-04-16 06:33 48.47441 20.51556 35817 ft 435 kts 299°
2026-04-16 06:33 48.48790 20.47470 35999 ft 435 kts 297°
2026-04-16 06:33 48.50042 20.43312 36171 ft 436 kts 296°
2026-04-16 06:34 48.51240 20.39097 36350 ft 436 kts 295°
2026-04-16 06:34 48.52410 20.34873 36506 ft 435 kts 295°
2026-04-16 06:34 48.53559 20.30706 36642 ft 435 kts 295°
2026-04-16 06:34 48.54729 20.26474 36783 ft 435 kts 295°
2026-04-16 06:35 48.55900 20.22261 36926 ft 435 kts 295°
2026-04-16 06:35 48.57077 20.18047 37060 ft 435 kts 295°
2026-04-16 06:35 48.58256 20.13833 37194 ft 435 kts 295°
2026-04-16 06:35 48.59437 20.09619 37331 ft 435 kts 295°
2026-04-16 06:36 48.60613 20.05416 37472 ft 434 kts 295°
2026-04-16 06:36 48.61774 20.01259 37623 ft 433 kts 295°
2026-04-16 06:36 48.62947 19.97054 37738 ft 433 kts 295°
2026-04-16 06:36 48.64118 19.92844 37820 ft 434 kts 295°
2026-04-16 06:37 48.65286 19.88641 38009 ft 432 kts 294°
2026-04-16 06:37 48.66432 19.84505 38158 ft 431 kts 294°
2026-04-16 06:37 48.68754 19.76105 38165 ft 431 kts 294°
2026-04-16 06:38 48.71061 19.67728 38162 ft 431 kts 294°
2026-04-16 06:38 48.73363 19.59344 38163 ft 430 kts 294°
2026-04-16 06:39 48.75647 19.50994 38166 ft 430 kts 294°
2026-04-16 06:39 48.77918 19.42662 38167 ft 429 kts 294°
2026-04-16 06:40 48.80195 19.34278 38176 ft 429 kts 294°
2026-04-16 06:40 48.82465 19.25889 38175 ft 429 kts 294°
2026-04-16 06:41 48.84719 19.17533 38176 ft 429 kts 294°
2026-04-16 06:41 48.86964 19.09179 38174 ft 429 kts 293°
2026-04-16 06:42 48.89217 19.00756 38185 ft 429 kts 293°
2026-04-16 06:42 48.91449 18.92386 38182 ft 429 kts 293°
2026-04-16 06:43 48.93690 18.83955 38184 ft 429 kts 293°
2026-04-16 06:43 48.95911 18.75570 38176 ft 429 kts 292°
2026-04-16 06:44 48.98136 18.67134 38185 ft 428 kts 292°
2026-04-16 06:44 49.00339 18.58754 38191 ft 428 kts 292°
2026-04-16 06:45 49.02549 18.50316 38192 ft 428 kts 292°
2026-04-16 06:45 49.04751 18.41879 38197 ft 428 kts 292°
2026-04-16 06:46 49.06947 18.33433 38197 ft 428 kts 292°
2026-04-16 06:46 49.09133 18.24998 38199 ft 427 kts 292°
2026-04-16 06:47 49.11293 18.16627 38200 ft 427 kts 292°
2026-04-16 06:47 49.13903 18.08508 38199 ft 426 kts 301°
2026-04-16 06:48 49.17069 18.00815 38197 ft 426 kts 303°
2026-04-16 06:48 49.20307 17.93266 38197 ft 427 kts 303°
2026-04-16 06:49 49.23574 17.85662 38198 ft 427 kts 302°
2026-04-16 06:49 49.26818 17.78048 38219 ft 426 kts 302°
2026-04-16 06:50 49.30044 17.70428 38198 ft 425 kts 302°
2026-04-16 06:50 49.33233 17.62869 38201 ft 424 kts 302°
2026-04-16 06:51 49.36438 17.55249 38198 ft 425 kts 302°
2026-04-16 06:51 49.39629 17.47645 38207 ft 425 kts 302°
2026-04-16 06:52 49.42826 17.40004 38202 ft 425 kts 302°
2026-04-16 06:52 49.46026 17.32333 38197 ft 425 kts 302°
2026-04-16 06:53 49.49191 17.24724 38204 ft 425 kts 302°
2026-04-16 06:53 49.52376 17.17049 38201 ft 425 kts 301°
2026-04-16 06:54 49.55553 17.09367 38197 ft 425 kts 301°
2026-04-16 06:54 49.58707 17.01717 38198 ft 425 kts 301°
2026-04-16 06:55 49.61874 16.94015 38197 ft 425 kts 301°
2026-04-16 06:55 49.65020 16.86344 38195 ft 424 kts 300°
2026-04-16 06:56 49.68173 16.78634 38197 ft 424 kts 300°
2026-04-16 06:56 49.71303 16.70953 38194 ft 424 kts 300°
2026-04-16 06:57 49.74448 16.63213 38191 ft 424 kts 300°
2026-04-16 06:57 49.77568 16.55514 38193 ft 424 kts 300°
2026-04-16 06:58 49.80700 16.47764 38195 ft 424 kts 299°
2026-04-16 06:58 49.83823 16.40014 38192 ft 423 kts 299°
2026-04-16 06:59 49.86923 16.32295 38189 ft 423 kts 299°
2026-04-16 06:59 49.90036 16.24521 38187 ft 423 kts 299°
2026-04-16 07:00 49.93139 16.16752 38189 ft 423 kts 299°
2026-04-16 07:01 49.97774 16.05104 38187 ft 423 kts 298°
2026-04-16 07:01 50.00863 15.97311 38178 ft 423 kts 298°
2026-04-16 07:02 50.03945 15.89509 38184 ft 423 kts 298°
2026-04-16 07:02 50.07008 15.81736 38181 ft 423 kts 298°
2026-04-16 07:03 50.09567 15.75225 38186 ft 423 kts 298°
2026-04-16 07:03 50.12642 15.67379 38186 ft 423 kts 298°
2026-04-16 07:04 50.15694 15.59567 38181 ft 424 kts 298°
2026-04-16 07:04 50.18758 15.51701 38182 ft 424 kts 298°
2026-04-16 07:05 50.21798 15.43872 38184 ft 423 kts 298°
2026-04-16 07:05 50.24850 15.35991 38185 ft 423 kts 298°
2026-04-16 07:06 50.27901 15.28088 38184 ft 424 kts 297°
2026-04-16 07:06 50.30803 15.20546 38186 ft 424 kts 297°
2026-04-16 07:07 50.33846 15.12616 38189 ft 424 kts 297°
2026-04-16 07:07 50.36886 15.04669 38187 ft 424 kts 297°
2026-04-16 07:08 50.39899 14.96770 38179 ft 424 kts 297°
2026-04-16 07:08 50.42922 14.88819 38183 ft 425 kts 297°
2026-04-16 07:09 50.45950 14.80832 38184 ft 426 kts 297°
2026-04-16 07:09 50.48976 14.72823 38187 ft 426 kts 297°
2026-04-16 07:10 50.51977 14.64858 38181 ft 426 kts 297°
2026-04-16 07:10 50.54997 14.56818 38185 ft 426 kts 297°
2026-04-16 07:11 50.58006 14.48779 38183 ft 426 kts 297°
2026-04-16 07:11 50.61002 14.40751 38185 ft 427 kts 297°
2026-04-16 07:12 50.64009 14.32672 38182 ft 427 kts 297°
2026-04-16 07:12 50.66993 14.24627 38182 ft 427 kts 297°
2026-04-16 07:13 50.69986 14.16528 38182 ft 427 kts 297°
2026-04-16 07:13 50.72981 14.08404 38191 ft 428 kts 297°
2026-04-16 07:14 50.75961 14.00292 38187 ft 429 kts 297°
2026-04-16 07:14 50.78959 13.92108 38185 ft 430 kts 297°
2026-04-16 07:15 50.81502 13.83590 38185 ft 426 kts 289°
2026-04-16 07:15 50.83671 13.74900 38184 ft 426 kts 288°
2026-04-16 07:16 50.85778 13.66126 38191 ft 426 kts 288°
2026-04-16 07:16 50.87862 13.57395 38186 ft 426 kts 288°
2026-04-16 07:17 50.89965 13.48597 38184 ft 426 kts 288°
2026-04-16 07:17 50.92061 13.39809 38180 ft 426 kts 288°
2026-04-16 07:18 50.94142 13.31058 38181 ft 426 kts 288°
2026-04-16 07:18 50.96232 13.22230 38182 ft 427 kts 288°
2026-04-16 07:19 50.98305 13.13440 38177 ft 428 kts 288°
2026-04-16 07:19 51.00389 13.04565 38182 ft 428 kts 288°
2026-04-16 07:20 51.02462 12.95704 38183 ft 427 kts 288°
2026-04-16 07:20 51.04517 12.86881 38176 ft 428 kts 288°
2026-04-16 07:21 51.06574 12.78008 38179 ft 427 kts 288°
2026-04-16 07:21 51.08629 12.69115 38182 ft 427 kts 288°
2026-04-16 07:22 51.10661 12.60277 38180 ft 427 kts 288°
2026-04-16 07:22 51.12687 12.51434 38181 ft 427 kts 288°
2026-04-16 07:23 51.14714 12.42544 38196 ft 427 kts 288°
2026-04-16 07:23 51.16735 12.33646 38177 ft 427 kts 288°
2026-04-16 07:24 51.18754 12.24719 38176 ft 427 kts 288°
2026-04-16 07:24 51.20756 12.15830 38160 ft 427 kts 288°
2026-04-16 07:25 51.22762 12.06884 38168 ft 427 kts 288°
2026-04-16 07:25 51.24750 11.97982 38187 ft 427 kts 288°
2026-04-16 07:26 51.26740 11.89036 38165 ft 427 kts 288°
2026-04-16 07:26 51.28718 11.80100 38165 ft 426 kts 287°
2026-04-16 07:27 51.30684 11.71182 38167 ft 426 kts 287°
2026-04-16 07:27 51.32637 11.62285 38166 ft 426 kts 287°
2026-04-16 07:28 51.34600 11.53305 38185 ft 426 kts 287°
2026-04-16 07:28 51.36553 11.44328 38171 ft 426 kts 287°
2026-04-16 07:29 51.38487 11.35405 38170 ft 427 kts 287°
2026-04-16 07:29 51.40426 11.26415 38169 ft 427 kts 287°
2026-04-16 07:30 51.42349 11.17462 38178 ft 426 kts 287°
2026-04-16 07:30 51.44275 11.08454 38174 ft 426 kts 287°
2026-04-16 07:31 51.46193 10.99443 38174 ft 427 kts 287°
2026-04-16 07:31 51.48097 10.90462 38173 ft 427 kts 287°
2026-04-16 07:32 51.50005 10.81417 38174 ft 427 kts 287°
2026-04-16 07:32 51.51904 10.72376 38174 ft 427 kts 287°
2026-04-16 07:33 51.53701 10.63342 38189 ft 426 kts 283°
2026-04-16 07:33 51.55076 10.54073 38178 ft 426 kts 281°
2026-04-16 07:34 51.56357 10.44770 38179 ft 426 kts 281°
2026-04-16 07:34 51.57609 10.35487 38178 ft 426 kts 281°
2026-04-16 07:35 51.58866 10.26151 38179 ft 426 kts 281°
2026-04-16 07:35 51.60114 10.16872 38194 ft 426 kts 281°
2026-04-16 07:36 51.61357 10.07572 38196 ft 426 kts 281°
2026-04-16 07:36 51.62599 9.98228 38181 ft 427 kts 281°
2026-04-16 07:37 51.63837 9.88852 38185 ft 427 kts 281°
2026-04-16 07:37 51.65056 9.79554 38183 ft 427 kts 281°
2026-04-16 07:38 51.66275 9.70194 38189 ft 427 kts 281°
2026-04-16 07:38 51.67487 9.60829 38185 ft 427 kts 281°
2026-04-16 07:39 51.68688 9.51437 38184 ft 426 kts 279°
2026-04-16 07:39 51.69708 9.42068 38186 ft 426 kts 278°
2026-04-16 07:40 51.70633 9.32639 38178 ft 426 kts 278°
2026-04-16 07:40 51.71552 9.23219 38179 ft 426 kts 278°
2026-04-16 07:41 51.72481 9.13768 38179 ft 426 kts 278°
2026-04-16 07:41 51.73406 9.04367 38182 ft 426 kts 278°
2026-04-16 07:42 51.74329 8.94914 38185 ft 426 kts 278°
2026-04-16 07:42 51.75244 8.85449 38183 ft 426 kts 278°
2026-04-16 07:43 51.76146 8.76041 38182 ft 426 kts 278°
2026-04-16 07:43 51.77045 8.66578 38184 ft 425 kts 278°
2026-04-16 07:44 51.77928 8.57201 38185 ft 424 kts 278°
2026-04-16 07:44 51.78808 8.47768 38185 ft 424 kts 278°
2026-04-16 07:45 51.79682 8.38318 38182 ft 424 kts 277°
2026-04-16 07:45 51.80543 8.28928 38185 ft 424 kts 277°
2026-04-16 07:46 51.81401 8.19486 38188 ft 423 kts 277°
2026-04-16 07:46 51.82248 8.10068 38190 ft 423 kts 277°
2026-04-16 07:47 51.83087 8.00653 38190 ft 423 kts 277°
2026-04-16 07:47 51.83916 7.91268 38188 ft 422 kts 277°
2026-04-16 07:48 51.84740 7.81851 38191 ft 422 kts 277°
2026-04-16 07:48 51.85552 7.72477 38189 ft 422 kts 276°
2026-04-16 07:49 51.86120 7.63031 38191 ft 421 kts 273°
2026-04-16 07:49 51.86485 7.53555 38185 ft 421 kts 273°
2026-04-16 07:50 51.86833 7.44132 38189 ft 421 kts 273°
2026-04-16 07:50 51.87201 7.34657 38188 ft 421 kts 273°
2026-04-16 07:51 51.87575 7.25234 38190 ft 421 kts 273°
2026-04-16 07:51 51.87886 7.17300 38186 ft 421 kts 273°
2026-04-16 07:52 51.88247 7.07900 38188 ft 421 kts 273°
2026-04-16 07:52 51.88603 6.98434 38192 ft 421 kts 273°
2026-04-16 07:53 51.88950 6.88968 38191 ft 421 kts 272°
2026-04-16 07:53 51.89288 6.79532 38190 ft 421 kts 272°
2026-04-16 07:54 51.89622 6.70024 38188 ft 422 kts 272°
2026-04-16 07:54 51.89945 6.60586 38190 ft 422 kts 272°
2026-04-16 07:55 51.90264 6.51073 38190 ft 422 kts 272°
2026-04-16 07:55 51.90574 6.41560 38190 ft 422 kts 272°
2026-04-16 07:56 51.90875 6.32113 38183 ft 422 kts 272°
2026-04-16 07:56 51.91171 6.22573 38186 ft 423 kts 272°
2026-04-16 07:57 51.91458 6.13065 38186 ft 423 kts 272°
2026-04-16 07:57 51.91738 6.03543 38183 ft 423 kts 272°
2026-04-16 07:58 51.92009 5.94075 38184 ft 423 kts 272°
2026-04-16 07:58 51.92274 5.84533 38184 ft 423 kts 272°
2026-04-16 07:59 51.92531 5.74996 38182 ft 423 kts 272°
2026-04-16 07:59 51.92779 5.65531 38183 ft 423 kts 272°
2026-04-16 08:00 51.93021 5.55996 38180 ft 423 kts 272°
2026-04-16 08:00 51.93254 5.46463 38184 ft 423 kts 272°
2026-04-16 08:01 51.93480 5.36991 38196 ft 423 kts 272°
2026-04-16 08:01 51.93698 5.27470 38184 ft 422 kts 272°
2026-04-16 08:02 51.93899 5.18357 38184 ft 422 kts 271°
2026-04-16 08:02 51.94182 5.04134 38181 ft 422 kts 271°
2026-04-16 08:03 51.94369 4.94591 38181 ft 422 kts 271°
2026-04-16 08:03 51.94555 4.85143 38162 ft 421 kts 272°
2026-04-16 08:04 51.94744 4.75689 38176 ft 418 kts 272°
2026-04-16 08:04 51.94918 4.66258 38161 ft 418 kts 272°
2026-04-16 08:05 51.95079 4.56837 38152 ft 417 kts 271°
2026-04-16 08:05 51.95230 4.47470 38158 ft 417 kts 271°
2026-04-16 08:06 51.95374 4.38054 38157 ft 418 kts 271°
2026-04-16 08:06 51.95511 4.28633 38157 ft 418 kts 271°
2026-04-16 08:07 51.95640 4.19215 38161 ft 417 kts 271°
2026-04-16 08:07 51.95762 4.09797 38172 ft 417 kts 271°
2026-04-16 08:08 51.95876 4.00428 38177 ft 417 kts 271°
2026-04-16 08:08 51.95983 3.91009 38183 ft 417 kts 271°
2026-04-16 08:09 51.96082 3.81601 38178 ft 416 kts 271°
2026-04-16 08:09 51.96173 3.72272 38178 ft 415 kts 271°
2026-04-16 08:10 51.96257 3.62900 38161 ft 415 kts 271°
2026-04-16 08:10 51.96334 3.53505 38166 ft 415 kts 271°
2026-04-16 08:11 51.96404 3.44130 38166 ft 415 kts 271°
2026-04-16 08:11 51.96465 3.34818 38171 ft 415 kts 271°
2026-04-16 08:12 51.96519 3.25447 38180 ft 414 kts 271°
2026-04-16 08:12 51.96434 3.16167 38089 ft 410 kts 266°
2026-04-16 08:13 51.96201 3.11582 37591 ft 406 kts 266°
2026-04-16 08:13 51.95932 3.07032 36922 ft 404 kts 265°
2026-04-16 08:13 51.95643 3.02541 36318 ft 401 kts 265°
2026-04-16 08:13 51.95344 2.98055 35716 ft 398 kts 265°
2026-04-16 08:14 51.95042 2.93591 35114 ft 395 kts 265°
2026-04-16 08:14 51.94747 2.89233 34576 ft 391 kts 265°
2026-04-16 08:14 51.94451 2.84860 33993 ft 387 kts 265°
2026-04-16 08:14 51.94159 2.80527 33175 ft 387 kts 265°
2026-04-16 08:15 51.93867 2.76181 32245 ft 386 kts 265°
2026-04-16 08:15 51.93577 2.71877 31058 ft 384 kts 264°
2026-04-16 08:15 51.93288 2.67616 29816 ft 384 kts 264°
2026-04-16 08:15 51.92997 2.63369 28991 ft 372 kts 264°
2026-04-16 08:16 51.92713 2.59238 27888 ft 367 kts 264°
2026-04-16 08:16 51.92429 2.55126 26803 ft 364 kts 264°
2026-04-16 08:16 51.92148 2.51068 25807 ft 360 kts 264°
2026-04-16 08:16 51.91868 2.47052 24844 ft 356 kts 264°
2026-04-16 08:17 51.91593 2.43124 23932 ft 353 kts 264°
2026-04-16 08:17 51.91318 2.39211 23068 ft 345 kts 264°
2026-04-16 08:17 51.91049 2.35405 22434 ft 332 kts 264°
2026-04-16 08:17 51.90836 2.31756 22075 ft 319 kts 266°
2026-04-16 08:18 51.90730 2.28229 21639 ft 318 kts 267°
2026-04-16 08:19 51.90149 2.03427 19318 ft 310 kts 267°
2026-04-16 08:20 51.90062 1.99932 18989 ft 310 kts 267°
2026-04-16 08:20 51.89975 1.96452 18668 ft 309 kts 266°
2026-04-16 08:20 51.89903 1.92981 18327 ft 308 kts 269°
2026-04-16 08:20 51.90149 1.89585 18118 ft 308 kts 282°
2026-04-16 08:21 51.91006 1.86385 17999 ft 313 kts 298°
2026-04-16 08:21 51.92319 1.83529 17904 ft 317 kts 304°
2026-04-16 08:21 51.93745 1.80780 17810 ft 318 kts 305°
2026-04-16 08:21 51.95178 1.78054 17692 ft 318 kts 305°
2026-04-16 08:22 51.96609 1.75320 17581 ft 317 kts 305°
2026-04-16 08:22 51.98016 1.72617 17483 ft 317 kts 305°
2026-04-16 08:22 51.99437 1.69873 17374 ft 317 kts 304°
2026-04-16 08:22 52.00851 1.67135 17267 ft 316 kts 304°
2026-04-16 08:23 52.02267 1.64388 17171 ft 316 kts 304°
2026-04-16 08:23 52.03677 1.61645 17081 ft 316 kts 304°
2026-04-16 08:23 52.05090 1.58896 16966 ft 316 kts 304°
2026-04-16 08:23 52.06486 1.56174 16855 ft 316 kts 304°
2026-04-16 08:24 52.07895 1.53424 16741 ft 316 kts 304°
2026-04-16 08:24 52.09303 1.50675 16642 ft 316 kts 304°
2026-04-16 08:24 52.10707 1.47927 16531 ft 315 kts 304°
2026-04-16 08:24 52.12111 1.45179 16447 ft 315 kts 304°
2026-04-16 08:25 52.13510 1.42437 16338 ft 314 kts 304°
2026-04-16 08:25 52.14878 1.39723 16236 ft 313 kts 302°
2026-04-16 08:25 52.15988 1.36720 16134 ft 306 kts 288°
2026-04-16 08:25 52.16539 1.33406 16034 ft 301 kts 277°
2026-04-16 08:26 52.16841 1.30023 15940 ft 301 kts 275°
2026-04-16 08:26 52.17099 1.26635 15822 ft 301 kts 274°
2026-04-16 08:26 52.17354 1.23239 15730 ft 301 kts 274°
2026-04-16 08:26 52.17612 1.19855 15637 ft 301 kts 274°
2026-04-16 08:27 52.17869 1.16518 15539 ft 301 kts 274°
2026-04-16 08:27 52.18132 1.13129 15440 ft 300 kts 274°
2026-04-16 08:27 52.18395 1.09743 15335 ft 300 kts 274°
2026-04-16 08:27 52.18657 1.06362 15232 ft 300 kts 274°
2026-04-16 08:28 52.18915 1.03019 15136 ft 300 kts 274°
2026-04-16 08:28 52.19174 0.99643 15046 ft 300 kts 274°
2026-04-16 08:28 52.19434 0.96254 14947 ft 301 kts 275°
2026-04-16 08:28 52.19691 0.92902 14843 ft 301 kts 274°
2026-04-16 08:29 52.19949 0.89512 14749 ft 301 kts 274°
2026-04-16 08:29 52.20207 0.86116 14653 ft 301 kts 274°
2026-04-16 08:29 52.20463 0.82734 14567 ft 301 kts 274°
2026-04-16 08:29 52.20717 0.79352 14456 ft 300 kts 274°
2026-04-16 08:30 52.20971 0.75969 14361 ft 300 kts 274°
2026-04-16 08:30 52.21224 0.72591 14270 ft 300 kts 274°
2026-04-16 08:30 52.21475 0.69224 14153 ft 293 kts 274°
2026-04-16 08:30 52.21716 0.65987 14087 ft 283 kts 274°
2026-04-16 08:31 52.21948 0.62844 13923 ft 281 kts 274°
2026-04-16 08:31 52.22180 0.59673 13775 ft 282 kts 274°
2026-04-16 08:31 52.22413 0.56492 13631 ft 282 kts 274°
2026-04-16 08:31 52.22645 0.53310 13503 ft 281 kts 274°
2026-04-16 08:32 52.22875 0.50144 13350 ft 280 kts 274°
2026-04-16 08:32 52.23105 0.46988 13226 ft 279 kts 274°
2026-04-16 08:32 52.23308 0.44180 13093 ft 278 kts 274°
2026-04-16 08:32 52.23539 0.40963 12959 ft 278 kts 274°
2026-04-16 08:33 52.23692 0.37849 12814 ft 269 kts 267°
2026-04-16 08:33 52.23483 0.34907 12393 ft 258 kts 254°
2026-04-16 08:33 52.22784 0.32195 11497 ft 265 kts 236°
2026-04-16 08:33 52.21535 0.29977 10634 ft 272 kts 223°
2026-04-16 08:34 52.20080 0.27998 9934 ft 270 kts 221°
2026-04-16 08:34 52.18617 0.26101 9198 ft 267 kts 220°
2026-04-16 08:34 52.17164 0.24228 8470 ft 264 kts 220°
2026-04-16 08:34 52.15737 0.22383 7906 ft 257 kts 221°
2026-04-16 08:35 52.14378 0.20624 7472 ft 248 kts 221°
2026-04-16 08:35 52.13045 0.18895 7149 ft 241 kts 221°
2026-04-16 08:35 52.11735 0.17195 6866 ft 238 kts 221°
2026-04-16 08:35 52.10447 0.15523 6565 ft 235 kts 221°
2026-04-16 08:36 52.09190 0.13893 6249 ft 232 kts 221°
2026-04-16 08:36 52.07928 0.12258 5953 ft 230 kts 221°
2026-04-16 08:36 52.06674 0.10633 5640 ft 230 kts 221°
2026-04-16 08:36 52.05425 0.09016 5337 ft 228 kts 221°
2026-04-16 08:37 52.04186 0.07413 5011 ft 227 kts 221°
2026-04-16 08:37 52.02963 0.05831 4725 ft 227 kts 221°
2026-04-16 08:37 52.01725 0.04232 4354 ft 227 kts 221°
2026-04-16 08:37 52.00494 0.02644 4035 ft 224 kts 221°
2026-04-16 08:38 51.99267 0.01062 3751 ft 225 kts 220°
2026-04-16 08:38 51.98456 0.00015 3562 ft 225 kts 220°
2026-04-16 08:38 51.97232 -0.01562 3258 ft 223 kts 220°
2026-04-16 08:38 51.96005 -0.03141 3034 ft 229 kts 220°
2026-04-16 08:39 51.94784 -0.04712 3003 ft 216 kts 220°
2026-04-16 08:39 51.93643 -0.06177 3007 ft 209 kts 221°
2026-04-16 08:39 51.92676 -0.07903 3003 ft 206 kts 239°
2026-04-16 08:39 51.92104 -0.09928 3032 ft 192 kts 250°
2026-04-16 08:40 51.91737 -0.12013 3006 ft 192 kts 253°
2026-04-16 08:40 51.91388 -0.14106 3007 ft 193 kts 253°
2026-04-16 08:40 51.91029 -0.16197 2988 ft 192 kts 253°
2026-04-16 08:40 51.90666 -0.18276 2773 ft 191 kts 253°
2026-04-16 08:41 51.90310 -0.20336 2514 ft 186 kts 253°
2026-04-16 08:41 51.89977 -0.22277 2249 ft 172 kts 253°
2026-04-16 08:41 51.89673 -0.24044 2016 ft 159 kts 253°
2026-04-16 08:41 51.89391 -0.25681 1828 ft 142 kts 253°
2026-04-16 08:42 51.89140 -0.27136 1622 ft 126 kts 254°
2026-04-16 08:42 51.88913 -0.28452 1451 ft 119 kts 253°
2026-04-16 08:42 51.88691 -0.29736 1290 ft 119 kts 253°
2026-04-16 08:42 51.88465 -0.31043 1122 ft 122 kts 252°
2026-04-16 08:43 51.88239 -0.32359 960 ft 121 kts 253°
2026-04-16 08:43 51.88011 -0.33700 817 ft 124 kts 248°
2026-04-16 08:43 51.87780 -0.35001 621 ft 117 kts 247°
2026-04-16 08:43 51.87570 -0.36240 524 ft 107 kts 249°
2026-04-16 08:44 51.87420 -0.37067 525 ft 42 kts 254°
2026-04-16 08:44 51.87351 -0.37471 525 ft 21 kts 253°
2026-04-16 08:44 51.87338 -0.37689 524 ft 15 kts 310°
2026-04-16 08:44 51.87422 -0.37652 524 ft 13 kts 45°
2026-04-16 08:45 51.87485 -0.37549 525 ft 13 kts 45°
2026-04-16 08:45 51.87556 -0.37444 525 ft 14 kts 40°
2026-04-16 08:45 51.87578 -0.37322 525 ft 12 kts 69°
2026-04-16 08:45 51.87592 -0.37196 525 ft 12 kts 75°
2026-04-16 08:46 51.87613 -0.37068 525 ft 12 kts 75°
2026-04-16 08:46 51.87651 -0.36958 527 ft 9 kts 25°
2026-04-16 08:46 51.87718 -0.36988 524 ft 12 kts 340°
2026-04-16 08:46 51.87819 -0.37037 516 ft 18 kts 345°
2026-04-16 08:47 51.87948 -0.37094 512 ft 17 kts 343°
2026-04-16 08:47 51.88037 -0.37173 511 ft 9 kts 288°
2026-04-16 08:47 51.88054 -0.37249 511 ft 7 kts 326°
2026-04-16 08:47 51.88097 -0.37278 511 ft 0 kts 341°
2026-04-16 08:48 51.88099 -0.37279 511 ft 0 kts 341°